map of CKS home
Great Circle Mapper logo
CKS - Airport
Location
City:  Carajįs, Parį, Brazil
Near (Alt.):Parauapebas
ICAO:SBCJ
IATA:CKS

Details
Type:Airport (Aerodrome, Airfield)
Latitude:6°07'04"S (-6.117805)
Longitude:50°00'12"W (-50.003471)
Datum:WGS 1984
Elevation:2038 ft (621 m)
Variation:20.28°W (WMM2015 magnetic declination)
-0.06° annual change
Runways:1
Longest:6562 × 148 ft (2000 × 45 m), paved

Time
Time Zone:UTC-3
Local Time:

Weather
METAR:SBCJ 291300Z 00000KT 9999 FEW006 26/22 Q1016
TAF:SBCJ 291000Z 2912/2924 06005KT 9999 SCT020 TN23/2912Z TX28/2918Z
BECMG 2915/2917 09005KT SCT020 FEW025TCU PROB30 2920/2923 TS SCT020 FEW025CB
RMK PEH

Related Locations
Nearby:
Farthest:MXI: 12187 mi / 19613 km
Mati [Imelda Romualdez Marcos], Mindanao Island, PH

Find:

   beyond  
but within

Other Information
Maps:
NOTAMs:
Links:
Sources:

  
flag of Brazil
flag of Parį
  

Sectional Chart

Flight Planning
at skyvector.com

Satellite Image

Google Maps Satellite view

 

Copyright © 2004-2016 Karl L. Swartz. All rights reserved.
The Great Circle Mapper name and logo are trademarks of the Great Circle Mapper.
All other trademarks mentioned herein belong to their respective owners.
Please see credits for attibutions and further copyright information.

  Follow gcmap on Facebook Follow gcmap on Twitter Follow gcmap on Google+ GCmap on LinkedIn

hCard Microformat

Geo Microformat